EW8835 Weather Reports


Display with metric or nautical units.
time (UTC)temp
F
wind
direction
speed
MPH
gust
MPH
rain 1hr
in
rain 24hr
in
rain mn
in
humidity
%
barometer
mb
20260505002012 48 64 3.0 8.0 0.00 3.15 0.32 80 1003.5
20260505001514 48 356 3.0 8.0 0.00 3.15 0.32 80 1003.3
20260505001022 48 278 3.0 5.0 0.00 3.15 0.32 80 1003.3
20260505000523 48 358 3.0 7.0 0.00 3.15 0.32 79 1003.2
20260505000034 48 91 2.0 7.0 0.00 3.78 0.32 79 1003.0
20260504235513 48 60 2.0 8.0 0.00 3.78 0.32 78 1003.0
20260504235014 48 99 3.0 7.0 0.00 3.78 0.32 78 1002.8
20260504234522 48 262 3.0 7.0 0.00 3.78 0.32 77 1002.8
20260504234023 48 142 3.0 7.0 0.00 3.78 0.32 77 1002.7
20260504233552 48 215 3.0 7.0 0.00 3.78 0.32 76 1002.6
20260504233012 48 207 2.0 7.0 0.00 3.78 0.32 76 1002.6
20260504232513 49 242 2.0 7.0 0.00 3.78 0.32 75 1002.6
20260504232043 49 307 3.0 10.0 0.00 3.78 0.32 74 1002.4
20260504231523 49 52 3.0 10.0 0.00 3.78 0.32 72 1002.4
20260504231031 49 332 2.0 6.0 0.00 3.78 0.32 71 1002.3
20260504230513 50 319 3.0 6.0 0.00 3.78 0.32 70 1002.3
20260504230035 50 94 2.0 6.0 0.00 4.33 0.32 69 1002.3
20260504225521 50 212 2.0 8.0 0.00 4.33 0.32 68 1002.2
20260504225023 50 325 3.0 8.0 0.00 4.33 0.32 67 1002.1
20260504224547 50 231 3.0 7.0 0.00 4.33 0.32 66 1002.2
20260504224027 50 259 3.0 9.0 0.00 4.33 0.32 65 1002.1
20260504223537 51 214 3.0 9.0 0.00 4.33 0.32 64 1002.1
20260504223016 51 199 3.0 7.0 0.00 4.33 0.32 63 1002.1
20260504222518 51 143 3.0 9.0 0.00 4.33 0.32 61 1002.0
20260504222027 51 141 4.0 11.0 0.00 4.33 0.32 61 1001.9
20260504221528 51 353 4.0 11.0 0.00 4.33 0.32 60 1001.9
20260504221009 51 30 4.0 13.0 0.00 4.33 0.32 59 1001.8
20260504220510 52 252 5.0 14.0 0.00 4.33 0.32 58 1001.6
20260504220040 52 241 5.0 14.0 0.00 5.16 0.32 59 1001.6
20260504215519 52 243 5.0 14.0 0.00 5.16 0.32 58 1001.6
20260504215028 52 189 4.0 12.0 0.00 5.16 0.32 59 1001.6
20260504214528 52 264 6.0 12.0 0.00 5.16 0.32 58 1001.5
20260504214009 52 111 5.0 15.0 0.00 5.16 0.32 56 1001.5
20260504213518 52 29 5.0 15.0 0.00 5.16 0.32 56 1001.4
20260504213014 52 162 4.0 12.0 0.00 5.16 0.32 55 1001.4
20260504212514 53 224 4.0 15.0 0.00 5.16 0.32 56 1001.4
20260504212022 53 5 7.0 15.0 0.00 5.16 0.32 56 1001.4
20260504211524 53 223 5.0 13.0 0.00 5.16 0.32 57 1001.5
20260504211025 54 115 4.0 11.0 0.00 5.16 0.32 58 1001.5
20260504210533 54 217 4.0 13.0 0.00 5.16 0.32 59 1001.3
20260504210036 54 176 5.0 13.0 0.00 5.91 0.32 58 1001.4
20260504205521 55 331 5.0 13.0 0.00 5.91 0.32 58 1001.2
20260504205022 55 299 5.0 13.0 0.00 5.91 0.32 58 1001.2
20260504204530 55 217 5.0 11.0 0.00 5.91 0.32 57 1001.1
20260504204012 55 193 4.0 14.0 0.00 5.91 0.32 57 1001.1
20260504203513 55 354 5.0 14.0 0.00 5.91 0.32 57 1000.9
20260504203015 56 94 6.0 12.0 0.00 5.91 0.32 56 1000.9
20260504202521 56 72 5.0 12.0 0.00 5.91 0.32 53 1000.7
20260504202043 58 250 6.0 12.0 0.00 5.91 0.32 51 1000.8
20260504201529 58 295 2.0 7.0 0.00 5.91 0.32 45 1000.7
20260504201010 58 211 3.0 8.0 0.00 5.91 0.32 45 1000.6
20260504200539 58 328 4.0 9.0 0.00 5.91 0.32 43 1000.6
20260504200108 58 290 3.0 9.0 0.00 6.46 0.32 44 1000.5
20260504195526 58 41 4.0 9.0 0.00 6.46 0.32 46 1000.4
20260504195027 58 314 3.0 13.0 0.00 6.46 0.32 43 1000.4
20260504194535 58 308 4.0 13.0 0.00 6.46 0.32 46 1000.4
20260504194016 58 61 2.0 9.0 0.00 6.46 0.32 46 1000.3
20260504193517 57 221 3.0 10.0 0.00 6.46 0.32 44 1000.3
20260504193019 58 293 4.0 10.0 0.00 6.46 0.32 42 1000.2
20260504192526 58 182 3.0 9.0 0.00 6.46 0.32 45 1000.2
20260504192027 58 327 3.0 9.0 0.00 6.46 0.32 45 1000.3
20260504191535 58 300 4.0 9.0 0.00 6.46 0.32 43 1000.1
20260504191016 58 320 4.0 10.0 0.00 6.46 0.32 43 1000.1
20260504190517 58 103 3.0 10.0 0.00 6.46 0.32 46 1000.1
20260504190047 58 68 5.0 10.0 0.00 6.57 0.32 46 1000.0
20260504185546 57 72 3.0 9.0 0.00 6.57 0.32 51 1000.0
20260504185033 57 262 4.0 11.0 0.00 6.57 0.32 49 1000.0
20260504184515 57 281 5.0 11.0 0.00 6.57 0.32 48 1000.0
20260504184015 57 323 5.0 12.0 0.00 6.57 0.32 49 1000.0
20260504183516 57 219 5.0 12.0 0.00 6.57 0.32 49 1000.0
20260504183024 57 184 5.0 10.0 0.00 6.57 0.32 53 999.8
20260504182525 56 90 3.0 12.0 0.00 6.57 0.32 55 999.9
20260504182032 56 287 5.0 12.0 0.00 6.57 0.32 56 1000.0
20260504181510 56 273 3.0 9.0 0.00 6.57 0.32 55 1000.1
20260504181012 56 84 5.0 11.0 0.00 6.57 0.32 57 1000.0
20260504180512 56 98 5.0 11.0 0.00 6.57 0.32 58 1000.1
20260504180043 55 317 4.0 14.0 0.00 6.65 0.32 57 1000.1
20260504175529 55 320 4.0 14.0 0.00 6.65 0.32 57 1000.1
20260504175010 55 321 4.0 13.0 0.00 6.65 0.32 57 1000.0
20260504174510 55 52 7.0 13.0 0.00 6.65 0.32 56 1000.0
20260504174010 55 330 4.0 16.0 0.00 6.65 0.32 60 1000.1
20260504173519 55 322 5.0 16.0 0.00 6.65 0.32 58 999.8
20260504173018 55 39 5.0 11.0 0.00 6.65 0.32 57 999.8
20260504172518 55 266 6.0 14.0 0.00 6.65 0.32 58 999.8
20260504172027 55 304 5.0 14.0 0.00 6.65 0.32 61 999.8
20260504171525 55 102 3.0 12.0 0.00 6.65 0.32 63 999.8
20260504171025 55 348 7.0 12.0 0.00 6.65 0.32 58 999.8
20260504170533 55 258 5.0 12.0 0.00 6.65 0.32 61 999.7
20260504170105 54 303 4.0 13.0 0.00 7.01 0.32 60 999.6
20260504151011 48 335 3.0 11.0 0.00 7.09 0.32 88 998.5
20260504150513 47 304 4.0 11.0 0.00 7.09 0.32 88 998.5
20260504141020 45 312 3.0 9.0 0.00 7.09 0.32 97 997.9
20260504140522 45 326 4.0 9.0 0.00 7.09 0.32 97 997.8
20260504130534 44 341 4.0 10.0 0.00 7.09 0.32 98 996.5
20260504110525 39 358 4.0 9.0 0.24 7.09 0.32 100 994.1
20260504100528 38 270 2.0 6.0 0.35 6.85 0.28 100 992.6
20260504081508 34 307 4.0 8.0 0.04 6.06 0.12 100 988.9
20260504081029 34 305 2.0 10.0 0.00 6.02 0.11 100 988.9
20260504080511 34 4 3.0 10.0 0.00 6.02 0.11 100 988.9
20260504050522 36 330 7.0 20.0 0.08 5.79 0.06 100 983.3
20260504045515 36 321 7.0 17.0 0.12 5.79 0.06 100 983.4
20260504045040 36 40 5.0 16.0 0.16 5.79 0.06 100 983.4
20260504044518 36 283 7.0 16.0 0.16 5.79 0.06 100 983.3
20260504044025 36 4 5.0 20.0 0.16 5.79 0.06 100 983.3
20260504043510 36 356 9.0 20.0 0.16 5.75 0.06 100 983.2
20260504043034 36 36 6.0 18.0 0.16 5.75 0.06 100 983.0
20260504042514 36 24 6.0 18.0 0.20 5.75 0.06 100 983.1
20260504042015 36 345 8.0 21.0 0.24 5.75 0.06 100 983.0
20260504041516 36 24 9.0 24.0 0.20 5.71 0.05 100 983.1
20260504041024 36 149 8.0 24.0 0.24 5.71 0.05 100 983.1
20260504040546 36 41 6.0 19.0 0.20 5.67 0.04 100 983.1
20260504040035 36 100 7.0 21.0 0.24 5.67 0.04 100 983.2
20260504035514 36 61 5.0 17.0 0.24 5.67 0.04 100 983.2
20260504035022 36 69 7.0 16.0 0.20 5.63 0.03 100 983.2
20260504034522 36 65 7.0 14.0 0.28 5.63 0.03 100 983.3
20260504034030 35 68 6.0 17.0 0.28 5.63 0.03 100 983.2
20260504033011 35 4 5.0 20.0 0.31 5.55 0.02 100 983.4
20260504032513 35 316 9.0 17.0 0.35 5.55 0.02 100 983.5
20260504032021 36 28 9.0 16.0 0.35 5.51 0.01 100 983.6
20260504031522 36 345 5.0 19.0 0.31 5.47 0.00 100 983.7
20260504031007 36 356 7.0 19.0 0.35 5.47 0.00 100 983.8
20260504030515 36 47 6.0 19.0 0.39 5.47 0.00 100 984.0
20260504030039 36 357 7.0 17.0 0.35 5.43 1.09 100 983.7
20260504025524 36 25 7.0 14.0 0.39 5.43 1.09 100 984.1
20260504025025 36 8 6.0 14.0 0.35 5.39 1.08 100 984.2
20260504024513 36 16 4.0 14.0 0.35 5.35 1.07 100 984.2
20260504024042 35 56 6.0 22.0 0.39 5.35 1.07 99 984.4
20260504023522 35 23 7.0 22.0 0.39 5.31 1.06 99 984.5
20260504023023 36 330 5.0 18.0 0.35 5.24 1.05 100 984.6
20260504022531 36 41 7.0 21.0 0.35 5.20 1.04 100 984.8
20260504022009 36 20 5.0 15.0 0.31 5.16 1.03 100 984.9
20260504021537 36 63 6.0 14.0 0.39 5.16 1.03 100 985.0
20260504021015 36 48 5.0 16.0 0.43 5.12 1.02 99 985.2
20260504020516 36 57 6.0 16.0 0.47 5.08 1.02 99 985.3
20260504020048 36 56 7.0 14.0 0.55 5.08 1.02 99 985.6
20260504015525 35 262 5.0 18.0 0.55 5.04 1.01 99 985.7
20260504015026 36 25 5.0 18.0 0.55 5.00 1.00 99 985.8
20260504014508 36 16 6.0 17.0 0.59 5.00 1.00 99 986.0
20260504014015 36 44 6.0 17.0 0.59 4.96 0.99 99 986.1
20260504013543 36 11 5.0 13.0 0.59 4.92 0.98 99 986.3
20260504013023 36 46 6.0 14.0 0.63 4.88 0.98 99 986.5
20260504012523 36 22 3.0 14.0 0.67 4.84 0.97 99 986.5
20260504012031 36 40 6.0 15.0 0.71 4.80 0.96 99 986.7
20260504011509 36 98 6.0 18.0 0.71 4.76 0.95 99 986.6
20260504011038 37 347 7.0 18.0 0.71 4.69 0.94 99 986.7
20260504010534 37 49 5.0 18.0 0.63 4.57 0.91 99 986.5
20260504010043 37 30 6.0 18.0 0.63 4.53 0.91 99 986.7
20260504005521 37 316 7.0 12.0 0.59 4.49 0.90 99 986.5
20260504005012 37 127 4.0 14.0 0.63 4.45 0.89 99 986.9
20260504004513 37 77 7.0 14.0 0.67 4.41 0.88 99 987.1
20260504004014 37 51 6.0 14.0 0.67 4.37 0.87 99 987.2
20260504003523 37 51 6.0 15.0 0.63 4.29 0.86 99 987.4
20260504003024 37 1 7.0 15.0 0.63 4.25 0.85 99 987.7
20260504002526 37 288 7.0 18.0 0.63 4.17 0.83 99 987.9